Theta_e
310 311 311 308 308 309 308 307 306 306 307 307 307 309 311 316 317 319 318 316 311 310 312 318 318 319 319 320 320 321 323 325 327 328 328 328 328 327 325 324 324 323 324 324 323
309 311 312 311 311 311 311 311 311 309 307 307 307 310 315 319 321 319 312 311 311 318 320 321 321 319 320 320 321 321 322 323 325 325 326 326 325 325 323 323 323 323 323 323 323
308 310 312 311 311 310 310 311 311 308 308 307 308 312 317 320 325 319 314 313 313 317 320 318 319 319 320 320 321 321 321 322 323 323 322 322 323 322 321 321 322 322 322 323 323
309 310 312 312 311 311 309 310 311 310 307 307 310 315 319 321 326 317 312 312 317 317 319 318 319 320 321 322 322 321 321 321 321 322 321 321 321 320 320 321 321 321 321 321 321
311 312 312 313 311 309 311 311 311 309 307 307 312 316 318 323 319 313 313 317 318 319 318 318 319 320 321 322 322 321 321 320 321 321 320 319 319 319 319 319 319 319 319 319 320
311 312 312 312 309 311 311 312 311 311 311 312 313 316 318 321 317 317 317 317 317 318 318 318 318 318 317 320 320 320 320 320 320 319 319 319 319 319 319 320 319 319 319 319 319
310 311 311 311 311 313 313 312 312 311 315 316 316 317 321 317 317 318 318 317 316 316 318 317 316 317 319 320 320 320 320 319 320 320 320 320 319 320 321 320 320 320 320 320 319
310 311 310 312 312 313 312 310 311 313 315 316 317 320 317 315 317 316 317 318 317 317 316 316 315 316 318 319 318 319 320 321 323 322 321 320 320 321 321 321 321 321 320 320 320
311 310 311 311 312 312 313 313 313 314 315 317 320 322 317 316 316 315 316 317 317 316 316 315 316 318 319 319 320 322 321 322 323 322 322 321 320 321 320 321 322 321 321 321 320
312 311 310 311 312 313 313 314 314 314 314 316 319 318 316 317 315 315 315 315 316 316 317 317 318 320 320 321 321 321 320 319 320 320 320 320 321 321 321 321 322 322 322 322 321
311 312 312 311 311 312 313 314 315 317 318 317 316 317 316 315 314 316 316 317 316 316 319 320 320 319 321 320 319 318 317 318 319 320 320 320 321 322 322 322 323 323 323 323 323
308 312 313 311 311 316 317 319 319 317 319 316 315 315 314 315 316 317 316 318 318 319 320 319 320 321 320 319 318 318 319 320 321 322 322 322 322 322 323 324 324 323 323 323 323
305 312 313 313 315 317 317 318 317 317 320 316 314 315 315 315 317 316 316 316 318 319 320 320 320 320 318 318 320 321 321 321 322 322 322 322 323 323 324 323 324 323 322 322 322
304 309 312 314 317 318 318 316 317 318 324 318 317 317 316 315 318 316 316 317 319 319 320 320 320 320 320 320 320 322 321 320 321 322 322 321 323 324 323 324 325 324 323 322 321
305 306 312 312 317 316 314 317 318 318 333 317 317 315 316 316 315 317 316 318 320 320 320 322 321 320 319 321 320 320 320 320 320 321 322 322 323 324 324 325 324 324 322 321 321
305 306 315 319 320 316 315 318 320 326 328 318 317 317 318 318 317 316 317 319 320 322 322 322 321 320 321 320 319 320 320 320 322 323 325 324 325 326 325 325 325 324 322 321 321
305 307 311 316 318 315 315 319 325 325 319 319 318 317 317 318 317 317 318 320 322 321 323 320 321 321 320 320 320 320 321 322 322 322 323 325 325 328 326 325 324 322 321 320 320
307 310 317 317 317 315 317 322 327 322 320 318 317 317 318 318 317 317 318 319 321 319 320 321 321 322 320 319 319 319 321 322 324 324 323 322 322 322 324 323 323 322 322 321 321
317 320 320 316 317 315 319 324 324 321 318 317 318 319 320 319 318 318 318 318 318 319 319 320 322 321 319 319 318 320 321 321 323 322 324 322 322 324 324 324 322 321 321 320 320
312 321 318 315 316 318 323 321 320 318 317 318 319 319 319 319 319 319 319 319 317 317 316 319 320 319 320 319 319 321 321 323 322 326 325 321 321 322 324 323 322 321 320 320 318
320 323 316 315 318 323 325 323 319 317 316 318 319 319 319 320 319 318 319 318 317 317 316 316 317 318 319 320 321 320 322 322 323 323 326 326 322 322 325 322 322 321 320 318 317
319 321 315 315 322 322 322 320 316 317 317 317 317 318 319 320 319 319 319 318 316 316 316 316 317 321 319 318 319 320 321 321 332 325 328 327 326 322 323 321 321 321 319 318 316
320 318 316 316 321 322 320 318 317 317 318 317 318 318 318 318 321 318 318 318 315 316 316 316 318 320 320 320 322 323 321 320 322 326 326 327 325 320 321 321 320 318 318 317 315
319 319 315 316 316 317 319 318 319 318 317 316 317 317 318 320 320 320 319 319 318 317 313 313 316 318 322 319 319 319 318 318 320 323 322 323 321 319 321 322 319 317 316 315 314
315 316 315 317 317 315 316 317 317 318 318 318 318 319 320 318 319 320 319 319 318 318 317 317 319 318 318 318 318 318 317 318 319 321 323 322 321 321 321 318 317 316 315 313 313
312 313 312 315 316 316 314 318 317 317 317 317 317 317 317 319 319 320 318 318 319 318 319 322 323 319 320 318 316 316 317 317 317 317 320 319 319 318 317 316 315 314 313 313 313
309 309 312 314 316 316 316 314 314 313 314 314 315 316 316 317 316 315 315 315 317 317 318 321 324 319 321 318 316 317 318 319 320 319 320 323 318 316 317 315 314 313 312 311 310
Wind_Speed
17 15 14 13 11 10 9 7 4 1 1 2 4 7 13 13 11 5 2 5 3 2 2 3 6 6 10 13 14 11 8 13 18 20 12 8 3 1 4 3 8 13 16 13 10
17 14 14 13 12 9 8 7 6 3 1 2 5 11 13 9 6 2 2 4 5 6 5 6 8 7 13 11 12 10 10 17 17 10 12 13 7 7 9 11 13 16 14 14 10
14 12 11 12 13 13 10 8 7 4 0 4 8 14 11 3 4 3 1 4 4 3 6 4 6 8 13 13 13 16 14 18 20 10 11 16 12 12 14 14 18 15 17 13 7
15 12 11 13 15 14 12 9 6 1 2 6 12 15 9 2 2 3 4 7 9 9 3 5 8 12 14 13 17 10 17 21 16 17 12 14 19 17 18 20 20 20 19 19 17
16 14 13 13 13 14 11 8 3 4 4 8 16 15 5 1 7 4 5 7 9 6 4 5 9 8 10 10 8 11 15 19 11 13 16 17 18 19 22 23 23 22 21 20 19
14 15 17 17 10 6 9 8 4 5 7 13 16 9 5 2 2 0 3 5 5 5 3 5 7 9 10 11 11 16 15 16 18 18 18 17 18 18 23 21 17 14 17 17 18
14 15 18 17 10 7 10 9 5 9 12 13 8 2 4 5 2 3 4 3 4 4 7 4 7 9 13 11 10 11 14 15 19 18 15 10 13 18 20 15 16 19 18 22 20
13 12 16 15 9 9 11 11 12 17 15 10 5 2 4 1 2 3 4 5 4 4 4 7 9 10 10 10 14 14 14 12 10 9 5 7 16 15 17 7 17 18 20 21 21
10 12 11 14 9 9 11 14 17 16 13 7 2 6 6 3 1 4 4 5 6 7 7 8 6 8 9 11 12 18 11 13 10 13 8 11 18 15 24 27 24 23 24 24 25
12 9 10 8 6 9 11 12 15 13 4 4 8 6 4 1 2 2 5 5 7 8 11 13 13 12 13 11 9 14 15 15 18 17 19 19 21 18 23 26 26 27 26 26 25
15 7 11 6 5 5 8 1 4 6 10 6 6 3 3 3 1 3 6 8 9 12 11 9 9 11 10 10 12 13 16 17 18 19 20 20 20 20 23 28 26 27 25 24 23
15 8 8 7 5 4 3 7 3 6 5 3 0 2 1 3 5 2 8 9 3 10 10 7 15 3 7 9 12 13 16 18 16 16 17 20 24 23 23 26 26 10 11 13 14
16 8 7 5 5 4 3 5 4 4 7 8 1 1 2 4 0 5 10 9 10 11 9 9 14 10 7 9 13 14 15 16 19 18 19 21 25 22 16 18 16 7 4 7 8
18 8 5 2 4 5 2 8 2 3 5 10 6 4 2 1 5 5 8 8 6 6 7 8 4 6 9 12 13 14 16 17 18 18 16 18 18 21 21 21 19 7 4 5 5
18 7 3 6 4 8 9 5 2 2 4 2 6 2 2 3 7 3 6 4 8 10 6 2 7 10 10 9 10 15 15 16 19 20 21 21 12 21 19 8 13 11 2 5 9
17 4 4 4 4 8 7 2 1 6 1 6 1 1 5 5 2 6 3 3 7 9 9 11 14 7 6 12 13 15 18 18 19 18 15 22 17 17 10 7 8 5 7 6 7
14 1 1 4 7 8 4 3 5 6 3 4 4 4 6 3 5 2 8 4 6 8 4 16 12 9 1 10 11 14 15 10 6 9 12 9 4 7 23 20 9 7 8 4 6
9 2 8 1 9 6 0 6 6 5 7 3 4 8 2 7 4 5 6 5 8 8 10 7 6 3 2 10 11 15 8 5 11 14 19 22 13 11 14 19 28 31 23 17 17
6 6 4 5 6 1 6 6 7 9 6 9 12 6 5 6 3 4 7 2 5 6 5 7 6 22 17 3 7 9 9 12 11 16 16 14 21 5 15 13 13 12 18 20 19
6 2 0 6 5 1 6 4 4 6 6 6 7 4 8 10 9 8 9 7 2 2 4 6 11 12 10 4 16 17 11 8 5 5 12 12 20 17 2 12 6 4 12 19 19
7 6 3 4 4 8 6 6 3 6 7 5 9 8 10 9 7 9 5 1 6 2 8 11 9 11 17 18 16 13 10 11 7 9 10 15 11 14 17 19 2 11 22 19 20
4 5 6 5 9 7 8 5 4 5 2 5 5 7 7 8 9 10 9 1 7 4 9 10 6 13 20 25 21 14 14 11 1 9 11 11 20 16 21 18 22 19 22 22 19
10 7 5 8 5 9 5 7 2 5 4 4 7 8 7 8 6 7 8 5 3 3 4 6 4 9 9 6 6 2 11 16 13 7 13 13 15 17 21 23 21 24 23 22 24
8 4 8 4 5 9 9 9 5 6 4 7 9 13 11 11 10 8 12 11 11 8 8 5 7 12 10 15 18 24 23 20 18 8 18 21 32 25 21 17 16 24 26 27 27
7 6 5 7 7 11 9 10 10 8 1 8 6 9 9 2 10 16 13 16 21 15 11 9 14 17 20 21 23 25 28 26 23 23 20 27 29 19 17 13 20 22 21 32 35
9 8 11 17 10 11 6 6 10 8 12 11 13 16 15 13 12 15 20 17 17 18 17 12 16 18 24 19 23 28 26 27 27 24 21 19 23 17 21 25 18 26 35 37 35
13 11 9 12 14 7 5 8 13 14 10 11 10 12 14 16 19 22 25 28 25 20 19 17 8 2 18 16 20 19 18 14 15 18 16 13 18 19 20 13 24 33 33 35 36
Wind_Direction
25 28 35 36 40 42 39 35 32 356 260 178 147 137 128 121 109 74 347 224 255 136 98 83 258 249 245 247 236 260 256 254 262 266 323 46 341 12 88 268 288 277 272 282 315
13 24 26 30 28 20 17 17 11 353 276 162 147 150 148 138 116 102 162 134 140 105 49 289 242 239 235 235 228 218 252 252 269 339 322 337 3 333 326 299 281 280 258 263 269
10 14 19 17 10 0 344 331 344 356 231 157 153 158 158 160 282 94 133 105 102 107 16 303 270 251 247 239 241 239 248 267 290 342 328 311 300 287 286 273 274 278 282 290 286
25 25 15 2 351 348 344 339 327 25 108 143 155 155 149 237 29 149 110 90 69 38 353 272 257 248 247 239 235 239 268 273 290 294 307 295 305 294 286 284 287 281 284 284 278
27 25 15 0 344 339 356 24 58 72 110 142 153 157 166 110 85 137 98 15 9 338 301 302 281 289 269 277 271 258 264 270 254 268 274 277 278 285 282 281 277 274 275 273 268
18 20 14 5 5 11 358 344 48 84 116 142 159 172 285 165 94 216 1 317 348 326 337 336 350 330 295 291 276 304 304 292 286 277 277 280 278 291 280 277 266 255 264 267 271
11 17 16 20 42 36 24 27 91 121 130 136 141 233 322 105 174 253 298 317 330 344 333 347 327 304 316 286 296 301 288 283 267 256 254 314 291 262 269 258 266 271 275 274 258
9 9 21 29 49 47 49 67 100 122 122 118 102 29 79 34 193 317 295 286 299 302 329 330 314 294 277 292 297 266 263 276 321 181 230 236 276 296 282 289 290 276 272 277 266
5 11 7 27 57 72 82 88 113 122 112 107 297 283 129 41 97 342 326 293 290 279 279 297 310 275 298 248 275 234 251 295 221 179 213 221 282 279 286 281 285 276 269 264 261
2 4 7 20 78 105 113 117 127 139 155 269 279 253 156 200 343 318 321 295 276 294 277 232 248 244 243 244 297 329 323 312 304 308 303 293 282 288 292 284 286 280 273 269 267
360 355 3 4 44 172 133 146 214 228 224 325 34 57 98 345 299 271 325 296 258 254 262 239 270 277 357 2 329 309 299 295 294 296 289 284 287 288 291 284 280 274 269 266 269
357 347 358 6 36 78 265 258 343 321 270 205 156 120 340 312 231 128 343 310 298 272 294 254 229 5 10 313 294 287 284 283 290 299 308 306 298 290 277 267 261 290 283 299 291
355 344 349 29 65 45 12 327 309 325 267 154 200 314 328 307 122 353 345 321 277 271 270 295 302 16 321 300 293 291 294 301 307 317 295 280 274 279 295 311 248 215 278 285 304
350 341 348 344 4 340 328 344 306 315 267 141 182 135 282 81 194 332 339 321 269 314 321 274 21 312 296 304 312 306 330 319 308 307 295 311 295 285 277 267 247 190 93 10 345
347 341 19 28 53 19 330 330 246 300 260 115 105 326 218 10 333 120 346 331 292 327 307 333 338 321 316 327 337 301 309 302 296 284 284 279 270 279 278 351 35 32 27 6 18
344 342 101 21 351 342 334 332 163 233 151 131 267 327 264 163 81 308 308 266 282 291 278 275 278 265 325 325 293 296 295 292 280 268 258 269 266 281 280 92 168 214 292 45 26
345 10 140 86 340 328 317 240 246 260 175 95 11 340 333 327 307 320 323 293 4 331 303 321 282 101 109 317 320 326 321 319 307 320 305 18 2 246 310 352 74 78 349 326 331
4 60 60 158 328 315 101 240 261 62 48 51 281 305 264 11 20 330 294 344 121 358 318 339 311 164 57 310 321 301 282 282 295 305 305 312 293 309 26 44 16 16 3 16 8
44 37 24 322 313 343 248 251 12 12 14 347 301 256 195 157 207 308 311 279 29 6 341 315 274 330 313 6 329 324 298 335 303 294 289 278 279 85 64 50 347 28 333 341 340
5 222 224 345 292 227 254 262 34 50 341 324 300 18 329 333 327 333 315 90 337 96 341 315 302 292 296 291 263 241 265 308 299 294 294 292 312 303 78 2 59 302 354 330 319
3 265 22 11 301 257 268 26 4 79 354 330 336 306 311 316 316 311 287 175 128 314 327 297 265 282 304 283 289 316 263 253 278 274 268 289 271 308 331 323 233 335 339 331 327
337 295 357 339 269 233 43 21 356 325 296 297 310 298 299 334 307 300 302 22 69 341 304 315 290 286 286 284 273 259 276 295 60 281 274 288 273 284 284 318 313 355 333 323 321
326 313 8 335 312 2 44 304 229 305 333 314 303 299 310 304 316 302 303 339 256 255 338 10 310 313 307 260 120 272 309 313 298 298 279 283 278 314 304 302 337 337 316 315 312
317 320 11 332 59 346 2 308 325 159 302 289 295 306 290 292 301 282 278 292 297 221 173 174 239 248 265 287 303 293 291 288 284 270 279 263 281 287 289 301 339 317 315 311 315
359 36 14 325 22 336 313 306 299 310 232 328 289 283 289 218 288 293 283 309 296 274 227 214 251 261 269 278 285 297 295 291 280 269 249 267 269 297 299 4 306 317 319 317 310
14 357 335 299 316 305 286 306 339 344 340 313 308 311 313 301 297 297 307 304 293 292 286 256 263 269 272 285 291 286 286 284 286 290 291 311 304 315 333 335 330 329 323 312 306
8 341 303 299 289 299 5 342 316 318 310 307 309 313 299 301 311 301 297 287 276 276 274 282 281 81 271 291 306 294 272 275 292 293 280 287 307 326 328 333 325 316 310 305 308